Time,TemperatureF,DewpointF,PressureIn,WindDirection,WindDirectionDegrees,WindSpeedMPH,WindSpeedGustMPH,Humidity,HourlyPrecipIn,Conditions,Clouds,dailyrainin,SoftwareType,DateUTC
2013-04-28 00:00:00,51.4,50.3,30.08,ENE,68,0.0,0.0,96,0.00,,SKC,0.84,VWS V14.00,2013-04-28 04:00:00,
2013-04-28 00:20:00,51.4,50.3,30.07,SSE,158,0.0,0.0,96,0.00,,SKC,0.84,VWS V14.00,2013-04-28 04:20:00,
2013-04-28 00:40:00,51.4,50.3,30.07,SSE,158,0.0,0.0,96,0.00,,SKC,0.84,VWS V14.00,2013-04-28 04:40:00,
2013-04-28 01:00:00,51.4,50.3,30.05,NE,45,0.0,0.0,96,0.00,,SKC,0.65,VWS V14.00,2013-04-28 05:00:00,
2013-04-28 01:20:00,51.6,50.5,30.05,NE,45,0.0,0.0,96,0.00,,SKC,0.65,VWS V14.00,2013-04-28 05:20:00,
2013-04-28 02:00:00,52.3,51.2,30.04,SSE,158,0.0,0.0,96,0.00,,SKC,0.43,VWS V14.00,2013-04-28 06:00:00,
2013-04-28 02:20:00,52.9,51.8,30.04,SSE,158,0.0,0.0,96,0.00,,SKC,0.43,VWS V14.00,2013-04-28 06:20:00,
2013-04-28 02:40:00,53.4,52.3,30.03,SSE,158,0.0,0.0,96,0.00,,SKC,0.43,VWS V14.00,2013-04-28 06:40:00,
2013-04-28 03:01:00,54.0,52.8,30.01,WSW,248,0.0,0.0,96,0.00,,SKC,0.31,VWS V14.00,2013-04-28 07:01:00,
2013-04-28 03:40:00,55.0,53.9,30.01,SSW,202,0.0,7.4,96,0.02,,SKC,0.33,VWS V14.00,2013-04-28 07:40:00,
2013-04-28 04:00:00,54.9,53.7,30.00,SSE,158,0.0,3.1,96,0.02,,SKC,0.20,VWS V14.00,2013-04-28 08:00:00,
2013-04-28 04:20:00,54.7,53.6,30.00,SSW,202,0.0,0.7,96,0.04,,SKC,0.22,VWS V14.00,2013-04-28 08:20:00,
2013-04-28 04:40:00,54.7,53.6,29.99,SSE,158,0.0,0.0,96,0.02,,SKC,0.22,VWS V14.00,2013-04-28 08:40:00,
2013-04-28 05:20:00,54.7,53.6,29.99,South,180,0.4,4.9,96,0.00,,SKC,0.20,VWS V14.00,2013-04-28 09:20:00,
2013-04-28 05:40:00,54.9,53.7,30.04,SSE,158,0.0,1.1,96,0.31,,SKC,0.51,VWS V14.00,2013-04-28 09:40:00,
2013-04-28 06:00:00,54.5,53.4,29.99,ENE,68,0.0,0.0,96,0.39,,SKC,0.59,VWS V14.00,2013-04-28 10:00:00,
2013-04-28 06:20:00,54.1,53.0,29.96,South,180,0.0,3.8,96,0.41,,SKC,0.61,VWS V14.00,2013-04-28 10:20:00,
2013-04-28 06:40:00,54.0,52.8,29.98,SSE,158,0.0,0.0,96,0.10,,SKC,0.63,VWS V14.00,2013-04-28 10:40:00,
2013-04-28 07:01:00,54.1,53.0,29.98,SSE,158,0.0,0.0,96,0.04,,SKC,0.61,VWS V14.00,2013-04-28 11:01:00,
2013-04-28 07:20:00,54.0,52.8,29.99,SSE,158,0.0,0.0,96,0.00,,SKC,0.61,VWS V14.00,2013-04-28 11:20:00,
2013-04-28 07:40:00,54.0,52.8,30.02,South,180,0.0,0.0,96,0.02,,SKC,0.63,VWS V14.00,2013-04-28 11:40:00,
2013-04-28 08:00:00,53.8,52.7,30.01,South,180,0.0,0.0,96,0.08,,SKC,0.69,VWS V14.00,2013-04-28 12:00:00,
2013-04-28 08:20:00,53.6,52.5,29.98,South,180,0.0,0.0,96,0.16,,SKC,0.77,VWS V14.00,2013-04-28 12:20:00,
2013-04-28 08:40:00,53.8,52.7,30.00,SSE,158,0.4,0.4,96,0.16,,SKC,0.80,VWS V14.00,2013-04-28 12:40:00,
2013-04-28 09:00:00,54.0,52.8,30.03,SSE,158,0.0,1.1,96,0.10,,SKC,0.80,VWS V14.00,2013-04-28 13:00:00,
2013-04-28 09:20:00,54.0,52.8,30.01,South,180,0.0,0.0,96,0.04,,SKC,0.82,VWS V14.00,2013-04-28 13:20:00,
2013-04-28 10:00:00,54.0,52.8,30.03,SE,135,0.0,0.0,96,0.04,,SKC,0.82,VWS V14.00,2013-04-28 14:00:00,
2013-04-28 10:20:00,54.0,52.8,30.02,South,180,0.0,0.0,96,0.08,,SKC,0.88,VWS V14.00,2013-04-28 14:20:00,
2013-04-28 10:40:00,54.0,52.8,30.02,WNW,292,0.0,0.0,96,0.14,,SKC,0.94,VWS V14.00,2013-04-28 14:40:00,
2013-04-28 11:00:00,54.0,52.8,30.02,NNE,22,0.0,0.0,96,0.10,,SKC,0.88,VWS V14.00,2013-04-28 15:00:00,
2013-04-28 11:20:00,54.0,52.8,30.01,NNE,22,0.0,0.0,96,0.06,,SKC,0.88,VWS V14.00,2013-04-28 15:20:00,
2013-04-28 11:40:00,54.0,52.8,30.00,NNE,22,0.0,0.0,96,0.00,,SKC,0.88,VWS V14.00,2013-04-28 15:40:00,
2013-04-28 12:01:00,54.0,52.8,30.00,ESE,112,0.0,0.0,96,0.06,,SKC,0.94,VWS V14.00,2013-04-28 16:01:00,
2013-04-28 12:20:00,54.0,52.8,30.00,NNE,22,0.0,0.0,96,0.14,,SKC,1.02,VWS V14.00,2013-04-28 16:20:00,
2013-04-28 12:40:00,54.1,53.0,30.00,South,180,0.0,0.0,96,0.16,,SKC,1.04,VWS V14.00,2013-04-28 16:40:00,
2013-04-28 13:00:00,54.1,53.0,30.00,SSW,202,0.0,0.0,96,0.06,,SKC,1.02,VWS V14.00,2013-04-28 17:00:00,
2013-04-28 13:20:00,54.1,53.0,30.01,SSE,158,0.0,0.0,96,0.08,,SKC,1.06,VWS V14.00,2013-04-28 17:20:00,
2013-04-28 13:40:00,54.3,53.2,30.00,SE,135,0.0,0.0,96,0.08,,SKC,1.08,VWS V14.00,2013-04-28 17:40:00,
2013-04-28 14:40:00,54.7,53.6,29.98,SSE,158,0.0,0.0,96,0.14,,SKC,1.20,VWS V14.00,2013-04-28 18:40:00,
2013-04-28 15:00:00,54.9,13.4,29.99,SSE,158,0.0,0.0,19,0.08,,SKC,1.22,VWS V14.00,2013-04-28 19:00:00,
2013-04-28 15:20:00,55.2,54.1,29.95,North,0,0.0,0.0,96,0.04,,SKC,1.22,VWS V14.00,2013-04-28 19:20:00,
2013-04-28 15:40:00,55.0,53.9,29.93,South,180,0.0,0.0,96,0.02,,SKC,1.22,VWS V14.00,2013-04-28 19:40:00,
2013-04-28 16:20:00,55.6,14.0,29.92,SSE,158,0.0,1.3,19,0.02,,SKC,1.24,VWS V14.00,2013-04-28 20:20:00,
2013-04-28 16:40:00,55.8,14.1,29.87,ENE,68,2.5,2.5,19,0.04,,SKC,1.26,VWS V14.00,2013-04-28 20:40:00,
2013-04-28 17:00:00,55.9,14.3,29.92,South,180,0.0,3.8,19,0.02,,SKC,1.26,VWS V14.00,2013-04-28 21:00:00,
2013-04-28 17:20:00,56.1,14.4,29.94,SSE,158,0.0,0.0,19,0.02,,SKC,1.26,VWS V14.00,2013-04-28 21:20:00,
2013-04-28 17:40:00,56.1,14.4,29.94,SSE,158,0.0,3.6,19,0.00,,SKC,1.26,VWS V14.00,2013-04-28 21:40:00,
2013-04-28 18:20:00,56.7,14.9,29.93,South,180,0.0,0.0,19,0.00,,SKC,1.26,VWS V14.00,2013-04-28 22:20:00,
2013-04-28 18:40:00,56.7,14.9,29.92,South,180,0.0,0.0,19,0.00,,SKC,1.26,VWS V14.00,2013-04-28 22:40:00,
2013-04-28 19:00:00,56.7,14.9,29.92,SSE,158,0.0,2.7,19,0.00,,SKC,1.26,VWS V14.00,2013-04-28 23:00:00,
2013-04-28 19:20:00,56.7,14.9,29.92,SSE,158,0.0,5.4,19,0.00,,SKC,1.26,VWS V14.00,2013-04-28 23:20:00,
2013-04-28 20:00:00,56.1,55.0,29.93,South,180,0.0,8.5,96,0.00,,SKC,1.26,VWS V14.00,2013-04-29 00:00:00,
2013-04-28 20:20:00,55.9,54.8,29.93,SE,135,6.5,6.5,96,0.00,,SKC,1.26,VWS V14.00,2013-04-29 00:20:00,
2013-04-28 20:40:00,55.9,54.8,29.93,SSE,158,0.0,6.5,96,0.00,,SKC,1.26,VWS V14.00,2013-04-29 00:40:00,
2013-04-28 21:00:00,55.9,54.8,29.94,ESE,112,0.0,3.1,96,0.00,,SKC,1.26,VWS V14.00,2013-04-29 01:00:00,
2013-04-28 21:20:00,55.8,54.6,29.94,SSE,158,0.0,2.7,96,0.00,,SKC,1.26,VWS V14.00,2013-04-29 01:20:00,
2013-04-28 21:40:00,55.8,54.6,29.94,SSE,158,0.0,0.0,96,0.00,,SKC,1.26,VWS V14.00,2013-04-29 01:40:00,
2013-04-28 22:01:00,55.6,54.5,29.94,SSE,158,0.0,0.0,96,0.00,,SKC,1.26,VWS V14.00,2013-04-29 02:01:00,
2013-04-28 22:20:00,55.6,54.5,29.95,SSE,158,0.0,0.0,96,0.00,,SKC,1.26,VWS V14.00,2013-04-29 02:20:00,
2013-04-28 22:40:00,55.6,54.5,29.95,SSE,158,0.0,3.4,96,0.00,,SKC,1.26,VWS V14.00,2013-04-29 02:40:00,
2013-04-28 23:00:00,55.6,54.5,29.95,SSE,158,0.0,3.4,96,0.00,,SKC,1.26,VWS V14.00,2013-04-29 03:00:00,
2013-04-28 23:20:00,55.4,54.3,29.95,SE,135,0.0,0.0,96,0.00,,SKC,1.26,VWS V14.00,2013-04-29 03:20:00,
2013-04-28 23:41:00,55.2,54.1,29.94,WSW,248,0.0,0.0,96,0.00,,SKC,1.26,VWS V14.00,2013-04-29 03:41:00,